Regional Weather Roundup
Issued by NWS

Home | Current Version | Previous Version | Text Only | Print | Product List | Glossary Off
Versions: 1 2 3 4 5 6 7 8 9 10 11 12 13 14 15 16 17 18 19 20 21 22 23 24 25 26 27 28 29 30 31 32 33 34 35 36 37 38 39 40 41 42 43 44 45 46 47 48 49 50

489
ASUS43 KIND 061759
RWRIN

WEATHER ROUNDUP FOR INDIANA
NATIONAL WEATHER SERVICE INDIANAPOLIS IN
100 PM EST SAT FEB 06 2016

NOTE: "FAIR" INDICATES FEW OR NO CLOUDS BELOW 12,000 FEET WITH NO
SIGNIFICANT WEATHER AND/OR OBSTRUCTIONS TO VISIBILITY.

* - STATION DOES NOT REPORT WEATHER SUCH AS PRECIPITATION OR FOG.

+ - STATION NOT QUALITY CONTROLLED BY THE NATIONAL WEATHER SERVICE.
    USE DATA WITH CAUTION...ESPECIALLY DEWPOINT AND RELATIVE
    HUMIDITY OBSERVATIONS.

INZ001>003-010>013-019-020-061900-
NORTHWEST INDIANA

CITY           SKY/WX    TMP DP  RH WIND       PRES   REMARKS
GARY /AIRPORT/ MOSUNNY   37  23  56 SW14      30.24F
RENSSELAER +   SUNNY     37  27  65 S10       30.27F

$$

LMZ046-743>745-061900-
SOUTHERN LAKE MICHIGAN

STATION/POSITION TIME  TEMP    WIND        PRES    WAVE
                       AIR SEA DIR/SP/G            HT
                 (UTC) (F)     (DEG/KT/KT) (MB)    (FT)
BURNS HARBOR     1700   34     210/ 12/ 16 1025.1F
MICHIGAN CITY    1700   33     190/ 13/ 14   N/A

$$

INZ004-005-014>016-021>024-061900-
NORTH CENTRAL INDIANA

CITY           SKY/WX    TMP DP  RH WIND       PRES   REMARKS
ELKHART        SUNNY     36  21  55 MISG      30.25F
GOSHEN         SUNNY     35  23  61 SW13      30.24F WCI  26
6HR MIN TEMP:  20; 6HR MAX TEMP:  35;

PERU/GRISSOM   SUNNY     37  25  62 SW12      30.25F
6HR MIN TEMP:  19; 6HR MAX TEMP:  37;

SOUTH BEND     SUNNY     34  22  61 SW13      30.24F WCI  25
6HR MIN TEMP:  20; 6HR MAX TEMP:  34;


$$

INZ006>009-017-018-025>027-061900-
NORTHEAST INDIANA

CITY           SKY/WX    TMP DP  RH WIND       PRES   REMARKS
FORT WAYNE     MOSUNNY   34  24  67 W9        30.27F WCI  27
6HR MIN TEMP:  21; 6HR MAX TEMP:  34;


$$

INZ028-029-035-036-043>045-051>053-061900-
WEST CENTRAL INDIANA

CITY           SKY/WX    TMP DP  RH WIND       PRES   REMARKS
GREENCASTLE +  SUNNY     39  14  35 S6        30.29F
LAFAYETTE      SUNNY     39  23  52 SW8       30.28F
6HR MIN TEMP:  17; 6HR MAX TEMP:  39;

TERRE HAUTE    SUNNY     42  25  50 VRB5      30.30F
6HR MIN TEMP:  22; 6HR MAX TEMP:  42;


$$

INZ030>032-037>040-046>048-054>057-064-065-061900-
CENTRAL INDIANA

CITY           SKY/WX    TMP DP  RH WIND       PRES   REMARKS
ANDERSON       SUNNY     36  21  55 W9        30.30F
GREENWOOD *+   SUNNY     39  27  60 SW6       30.30F
INDIANAPOLIS   MOSUNNY   39  21  48 S5        30.29F
6HR MIN TEMP:  21; 6HR MAX TEMP:  39;

-EAGLE CREEK   SUNNY     39  23  52 VRB6      30.29F
6HR MIN TEMP:  19; 6HR MAX TEMP:  39;

KOKOMO *+        N/A     37 N/A N/A SW9       30.27F
6HR MIN TEMP:  19; 6HR MAX TEMP:  37;

MT COMFORT *+  SUNNY     37  21  52 S5        30.29F
SHELBYVILLE    SUNNY     38  24  57 SW8       30.30F
6HR MIN TEMP:  22; 6HR MAX TEMP:  38;


$$

INZ033-034-041-042-049-050-058-059-061900-
EAST CENTRAL INDIANA

CITY           SKY/WX    TMP DP  RH WIND       PRES   REMARKS
MUNCIE         SUNNY     37  19  48 SW10      30.28F
6HR MIN TEMP:  22; 6HR MAX TEMP:  37;


$$

INZ060-061-067>069-081>083-085>088-061900-
SOUTHWEST INDIANA

CITY           SKY/WX    TMP DP  RH WIND       PRES   REMARKS
EVANSVILLE     SUNNY     51  26  37 VRB3      30.33F
6HR MIN TEMP:  29; 6HR MAX TEMP:  51;

HUNTINGBURG *+ SUNNY     43  28  56 S3        30.34F
6HR MIN TEMP:  25; 6HR MAX TEMP:  43;


$$

INZ062-063-066-070>080-084-089>092-061900-
SOUTH CENTRAL AND SOUTHEAST INDIANA

CITY           SKY/WX    TMP DP  RH WIND       PRES   REMARKS
BLOOMINGTON    SUNNY     43  21  41 SW7       30.30F
6HR MIN TEMP:  20; 6HR MAX TEMP:  43;

MADISON *+     SUNNY     43  21  42 W6        30.33F
SEYMOUR +      SUNNY     45  28  53 CALM      30.33F

$$





USA.gov is the U.S. government's official web portal to all federal, state and local government web resources and services.